Florennes, Belgium

2:12 PM CEST on August 19, 2017 (GMT +0200)
Florennes Air Base

Weather History for EBFS - July, 2013

Change the Weather History Date:

Monday, July 8, 2013

  Actual Average Record
Temperature  
Mean Temperature 66 °F -  
Max Temperature 76 °F 65 °F 86 °F (2010)
Min Temperature 56 °F 54 °F 44 °F (2000)
Cooling Degree Days 1    
Growing Degree Days 16 (Base 50)    
Moisture  
Dew Point 56 °F    
Average Humidity 66    
Maximum Humidity 88    
Minimum Humidity 42    
Precipitation  
Precipitation 0.00 in - - ()
Sea Level Pressure  
Sea Level Pressure 30.40 in    
Wind  
Wind Speed 9 mph ()    
Max Wind Speed 129 mph    
Max Gust Speed -    
Visibility 7.6 miles    
Events      
Averages and records for this station are not official NWS values.
T = Trace of Precipitation, MM = Missing Value Source: Averaged Metar Reports

Daily Weather History Graph

Daily Weather History Graph

Search for Another Location

Airport or City:

Trip Planner

Search our weather history database for the weather conditions in past years. The results will help you decide how hot, cold, wet, or windy it might be!

Date:

Astronomy

Jul. 08, 2013 Rise Set
Actual Time 5:40 AM CEST 9:51 PM CEST
Civil Twilight 4:57 AM CEST 10:35 PM CEST
Nautical Twilight 3:54 AM CEST 11:37 PM CEST
Astronomical Twilight 2:18 AM CEST 1:14 AM CEST
Moon 6:05 AM CEST (7/8) 9:32 PM CEST (7/8)
Length of Visible Light 17h 38m
Length of Day
16h 10m
New Moon, 0% of the Moon is Illuminated
Jul 8
New Moon
Jul 16
First Quarter
Jul 22
Full
Jul 29
Last Quarter
Aug 6
New

Hourly Weather History & Observations

Time (CEST) Temp. Dew Point Humidity Pressure Visibility Wind Dir Wind Speed Gust Speed Precip Events Conditions
12:25 AM 62.6 °F 50.0 °F 63% 30.42 in 6.2 mi NE 9.2 mph - N/A   Partly Cloudy
12:55 AM 62.6 °F 50.0 °F 63% 30.42 in 6.2 mi NE 9.2 mph - N/A   Partly Cloudy
1:25 AM 64.4 °F 50.0 °F 59% 30.42 in 6.2 mi Variable 2.3 mph - N/A   Partly Cloudy
1:55 AM 62.6 °F 51.8 °F 68% 30.42 in 6.2 mi Variable 3.5 mph - N/A   Partly Cloudy
2:00 AM 63 °F 51 °F 56% 30.43 in 19 mi 2.2 mph - -   Clear
2:25 AM 60.8 °F 51.8 °F 72% 30.42 in 6.2 mi Variable 3.5 mph - N/A   Partly Cloudy
2:55 AM 59.0 °F 51.8 °F 77% 30.42 in 6.2 mi NE 6.9 mph - N/A   Partly Cloudy
3:25 AM 59.0 °F 51.8 °F 77% 30.42 in 6.2 mi NNE 8.1 mph - N/A   Partly Cloudy
3:55 AM 59.0 °F 51.8 °F 77% 30.42 in 6.2 mi NE 4.6 mph - N/A   Partly Cloudy
4:25 AM 57.2 °F 51.8 °F 82% 30.42 in 6.2 mi NE 6.9 mph - N/A   Partly Cloudy
4:55 AM 57.2 °F 53.6 °F 88% 30.42 in 6.2 mi NE 6.9 mph - N/A   Partly Cloudy
5:00 AM 57 °F 53 °F 81% 30.42 in 19 mi NE 6.7 mph - -   Clear
5:25 AM 57.2 °F 53.6 °F 88% 30.42 in 6.2 mi ENE 4.6 mph - N/A   Partly Cloudy
5:55 AM 57.2 °F 53.6 °F 88% 30.42 in 6.2 mi NE 6.9 mph - N/A   Partly Cloudy
6:25 AM 57.2 °F 53.6 °F 88% 30.42 in 6.2 mi NE 5.8 mph - N/A   Partly Cloudy
6:55 AM 59.0 °F 55.4 °F 88% 30.42 in 6.2 mi ENE 4.6 mph - N/A   Partly Cloudy
7:25 AM 60.8 °F 55.4 °F 82% 30.42 in 6.2 mi NE 4.6 mph - N/A   Partly Cloudy
7:55 AM 62.6 °F 57.2 °F 82% 30.42 in 6.2 mi NE 2.3 mph - N/A   Partly Cloudy
8:00 AM 62 °F 57 °F 78% 30.42 in 7 mi NE 4.5 mph - -   Clear
8:25 AM 62.6 °F 57.2 °F 82% 30.42 in 6.2 mi NE 5.8 mph - N/A   Partly Cloudy
8:55 AM 64.4 °F 57.2 °F 77% 30.42 in 6.2 mi ENE 5.8 mph - N/A   Partly Cloudy
9:25 AM 66.2 °F 57.2 °F 73% 30.45 in 6.2 mi ENE 6.9 mph - N/A   Partly Cloudy
9:55 AM 68.0 °F 59.0 °F 73% 30.45 in 6.2 mi ENE 6.9 mph - N/A   Partly Cloudy
10:25 AM 69.8 °F 59.0 °F 68% 30.42 in 6.2 mi NNE 9.2 mph - N/A   Partly Cloudy
10:55 AM 69.8 °F 57.2 °F 64% 30.45 in 6.2 mi NE 11.5 mph - N/A   Partly Cloudy
11:00 AM 71 °F 58 °F 53% 30.41 in 16 mi NE 11.2 mph - -   Clear
11:25 AM 71.6 °F 59.0 °F 64% 30.42 in 6.2 mi NE 11.5 mph - N/A   Partly Cloudy
11:55 AM 71.6 °F 59.0 °F 64% 30.42 in 6.2 mi NNE 11.5 mph - N/A   Partly Cloudy
12:25 PM 73.4 °F 57.2 °F 57% 30.42 in 6.2 mi NE 13.8 mph - N/A   Partly Cloudy
12:55 PM 73.4 °F 59.0 °F 61% 30.42 in 6.2 mi NE 13.8 mph - N/A   Partly Cloudy
1:25 PM 75.2 °F 60.8 °F 61% 30.42 in 6.2 mi NE 13.8 mph - N/A   Partly Cloudy
1:55 PM 75.2 °F 60.8 °F 61% 30.42 in 6.2 mi NE 128.9 mph - N/A   Partly Cloudy
2:00 PM 75 °F 60 °F 50% 30.38 in 19 mi NE 11.2 mph - -   Clear
2:25 PM 75.2 °F 57.2 °F 53% 30.42 in 6.2 mi NE 13.8 mph - N/A   Partly Cloudy
2:55 PM 75.2 °F 59.0 °F 57% 30.39 in 6.2 mi NE 12.7 mph - N/A   Partly Cloudy
3:25 PM 77.0 °F 59.0 °F 54% 30.39 in 6.2 mi NE 13.8 mph - N/A   Partly Cloudy
3:55 PM 75.2 °F 57.2 °F 53% 30.39 in 6.2 mi NNE 11.5 mph - N/A   Partly Cloudy
4:25 PM 75.2 °F 59.0 °F 57% 30.39 in 6.2 mi NE 13.8 mph - N/A   Partly Cloudy
4:55 PM 75.2 °F 57.2 °F 53% 30.39 in 6.2 mi NE 16.1 mph - N/A   Partly Cloudy
5:00 PM 76 °F 57 °F 42% 30.35 in 18 mi NE 15.7 mph - -   Clear
5:25 PM 77.0 °F 57.2 °F 50% 30.36 in 6.2 mi NE 15.0 mph - N/A   Partly Cloudy
5:55 PM 75.2 °F 57.2 °F 53% 30.36 in 6.2 mi NE 15.0 mph - N/A   Partly Cloudy
6:25 PM 75.2 °F 55.4 °F 50% 30.36 in 6.2 mi NE 16.1 mph - N/A   Partly Cloudy
6:55 PM 75.2 °F 55.4 °F 50% 30.36 in 6.2 mi NE 15.0 mph - N/A   Partly Cloudy
7:25 PM 75.2 °F 59.0 °F 57% 30.36 in 6.2 mi NE 13.8 mph - N/A   Partly Cloudy
7:55 PM 73.4 °F 57.2 °F 57% 30.36 in 6.2 mi NE 12.7 mph - N/A   Partly Cloudy
8:00 PM 74 °F 58 °F 47% 30.32 in 16 mi NE 13.4 mph - -   Clear
8:25 PM 73.4 °F 57.2 °F 57% 30.36 in 6.2 mi NE 11.5 mph - N/A   Partly Cloudy
8:55 PM 71.6 °F 57.2 °F 60% 30.36 in 6.2 mi NE 10.4 mph - N/A   Partly Cloudy
9:25 PM 71.6 °F 57.2 °F 60% 30.36 in 6.2 mi NE 10.4 mph - N/A   Partly Cloudy
9:55 PM 66.2 °F 57.2 °F 73% 30.36 in 6.2 mi NE 8.1 mph - N/A   Partly Cloudy
10:25 PM 66.2 °F 57.2 °F 73% 30.36 in 6.2 mi NE 9.2 mph - N/A   Partly Cloudy
10:55 PM 66.2 °F 57.2 °F 73% 30.36 in 6.2 mi NE 8.1 mph - N/A   Partly Cloudy
11:00 PM 65 °F 58 °F 71% 30.35 in 16 mi NE 8.9 mph - -   Clear
11:25 PM 64.4 °F 57.2 °F 77% 30.36 in 6.2 mi NE 8.1 mph - N/A   Partly Cloudy
11:55 PM 66.2 °F 57.2 °F 73% 30.36 in 6.2 mi ENE 4.6 mph - N/A   Partly Cloudy